Weather History for Lorain / Elyria, OH

Change the Weather History Date:

Tuesday, October 1, 2013

  Actual Average (KCLE) Record (KCLE)
Temperature  
Mean Temperature 70 °F 59 °F  
Max Temperature 84 °F 68 °F 87 °F (1952)
Min Temperature 57 °F 50 °F 34 °F (1960)
Degree Days  
Heating Degree Days 0 7  
Month to date heating degree days 7  
Since 1 July heating degree days 110  
Cooling Degree Days 4 1  
Month to date cooling degree days 1  
Year to date cooling degree days 805  
Growing Degree Days 20 (Base 50)    
Moisture  
Dew Point 56 °F    
Average Humidity 72    
Maximum Humidity 88    
Minimum Humidity 41    
Precipitation  
Precipitation 0.01 in 0.11 in 0.70 in (2011)
Month to date precipitation 0.11  
Year to date precipitation 29.46  
Snow  
Snow 0.00 in 0.00 in - ()
Month to date snowfall 0.0  
Since 1 July snowfall 0.0  
Since 1 September snowfall 0.0  
Snow Depth -    
Sea Level Pressure  
Sea Level Pressure 30.03 in    
Wind  
Wind Speed 5 mph (SW)    
Max Wind Speed 14 mph    
Max Gust Speed 22 mph    
Visibility 5 miles    
Events      
T = Trace of Precipitation, MM = Missing Value Source: NWS Daily Summary

Daily Weather History Graph

Daily Weather History Graph

Search for Another Location

Airport:

Trip Planner

Search our weather history database for the weather conditions in past years. The results will help you decide how hot, cold, wet, or windy it might be!

Date:

Astronomy

Oct. 01, 2013 Rise Set
Actual Time 7:25 AM EDT 7:10 PM EDT
Civil Twilight 6:58 AM EDT 7:37 PM EDT
Nautical Twilight 6:26 AM EDT 8:09 PM EDT
Astronomical Twilight 5:53 AM EDT 8:41 PM EDT
Moon 3:56 AM EDT (10/1) 5:14 PM EDT (10/1)
Length of Visible Light 12h 39m
Length of Day
11h 44m
Waning Crescent, 12% of the Moon is Illuminated
Oct 1
Waning Crescent
Oct 4
New
Oct 11
First Quarter
Oct 18
Full
Oct 26
Last Quarter

Hourly Weather History & Observations

Time (EDT) Temp. Heat Index Dew Point Humidity Pressure Visibility Wind Dir Wind Speed Gust Speed Precip Events Conditions
12:53 AM 63.0 °F - 57.0 °F 81% 29.99 in 4.0 mi SW 4.6 mph - N/A   Haze
1:53 AM 61.0 °F - 55.9 °F 83% 30.00 in 3.0 mi SW 4.6 mph - N/A   Haze
2:09 AM 60.8 °F - 55.4 °F 82% 30.01 in 2.5 mi SW 3.5 mph - N/A   Haze
2:37 AM 60.8 °F - 55.4 °F 82% 30.01 in 3.0 mi SW 5.8 mph - N/A   Haze
2:53 AM 61.0 °F - 55.9 °F 83% 30.01 in 3.0 mi SW 4.6 mph - N/A   Haze
3:53 AM 61.0 °F - 55.0 °F 81% 30.01 in 3.0 mi SSW 3.5 mph - 0.01 in   Haze
4:19 AM 59.0 °F - 53.6 °F 82% 30.02 in 2.0 mi South 3.5 mph - N/A   Haze
4:28 AM 59.0 °F - 53.6 °F 82% 30.02 in 1.8 mi South 3.5 mph - N/A   Haze
4:53 AM 59.0 °F - 54.0 °F 83% 30.02 in 1.2 mi South 3.5 mph - N/A   Haze
5:07 AM 59.0 °F - 53.6 °F 82% 30.03 in 0.8 mi South 3.5 mph - N/A   Haze
5:32 AM 59.0 °F - 53.6 °F 82% 30.03 in 0.5 mi SSW 3.5 mph - N/A   Haze
5:53 AM 57.9 °F - 53.1 °F 84% 30.03 in 0.5 mi Calm Calm - N/A   Haze
6:01 AM 57.2 °F - 51.8 °F 82% 30.04 in 0.8 mi SSW 3.5 mph - N/A   Haze
6:15 AM 57.2 °F - 53.6 °F 88% 30.05 in 1.0 mi SSW 4.6 mph - N/A   Clear
6:29 AM 57.2 °F - 53.6 °F 88% 30.05 in 2.0 mi SSW 3.5 mph - N/A   Haze
6:51 AM 57.2 °F - 53.6 °F 88% 30.05 in 1.8 mi SW 5.8 mph - N/A   Haze
6:53 AM 57.9 °F - 53.1 °F 84% 30.05 in 1.8 mi SW 4.6 mph - N/A   Haze
7:53 AM 59.0 °F - 54.0 °F 83% 30.06 in 1.0 mi SSW 4.6 mph - N/A   Haze
8:53 AM 64.0 °F - 57.9 °F 80% 30.06 in 2.0 mi WSW 4.6 mph - N/A   Haze
9:26 AM 66.2 °F - 60.8 °F 83% 30.07 in 3.0 mi SW 4.6 mph - N/A   Haze
9:53 AM 70.0 °F - 61.0 °F 73% 30.06 in 4.0 mi SW 6.9 mph - N/A   Haze
10:53 AM 73.9 °F - 62.1 °F 66% 30.07 in 8.0 mi WSW 5.8 mph - N/A   Partly Cloudy
11:46 AM 77.0 °F - 60.8 °F 57% 30.07 in 10.0 mi WSW 8.1 mph - N/A   Overcast
11:53 AM 79.0 °F - 62.1 °F 56% 30.06 in 10.0 mi SW 8.1 mph - N/A   Overcast
12:06 PM 78.8 °F - 60.8 °F 54% 30.06 in 10.0 mi SW 10.4 mph 16.1 mph N/A   Mostly Cloudy
12:53 PM 79.0 °F - 60.1 °F 52% 30.04 in 10.0 mi West 9.2 mph - N/A   Scattered Clouds
1:53 PM 81.0 °F 81.3 °F 59.0 °F 47% 30.02 in 10.0 mi WSW 13.8 mph 17.3 mph N/A   Partly Cloudy
2:53 PM 82.9 °F 82.8 °F 59.0 °F 44% 30.00 in 10.0 mi SW 13.8 mph 20.7 mph N/A   Clear
3:53 PM 81.0 °F 81.1 °F 57.9 °F 45% 29.99 in 10.0 mi WSW 9.2 mph 19.6 mph N/A   Scattered Clouds
4:53 PM 82.9 °F 82.4 °F 57.0 °F 41% 29.98 in 10.0 mi WSW 10.4 mph 21.9 mph N/A   Scattered Clouds
5:53 PM 81.0 °F 80.8 °F 55.9 °F 42% 29.98 in 10.0 mi SW 8.1 mph - N/A   Clear
6:53 PM 75.0 °F - 57.0 °F 53% 29.98 in 10.0 mi SW 6.9 mph - N/A   Clear
7:53 PM 70.0 °F - 57.0 °F 63% 29.99 in 10.0 mi WSW 3.5 mph - N/A   Clear
8:53 PM 66.0 °F - 55.9 °F 70% 30.00 in 10.0 mi SW 4.6 mph - N/A   Clear
9:53 PM 64.9 °F - 55.9 °F 73% 30.01 in 10.0 mi Calm Calm - N/A   Clear
10:53 PM 62.1 °F - 55.0 °F 78% 30.01 in 10.0 mi SSW 3.5 mph - N/A   Clear
11:53 PM 63.0 °F - 55.9 °F 78% 30.01 in 10.0 mi SW 4.6 mph - N/A   Clear